Location: Elstree
(51.6403°N, 0.2969°W)
Time: 20:40:54
(UTC+00:00)

deb Agena D - Visible Passes

Search period start: 19 September 2021 00:00
Search period end: 29 September 2021 00:00
Orbit: 689 x 734 km, 70.0° (Epoch: 19 September)

Date Brightness Start Highest point End Pass type
(mag) Time Alt. Az. Time Alt. Az. Time Alt. Az.
24 Sep ? 04:47:07 10° ESE 04:48:53 12° E 04:50:38 10° ENE visible
26 Sep ? 04:38:10 10° SE 04:41:20 17° ESE 04:44:30 10° ENE visible
28 Sep ? 04:29:53 10° SSE 04:33:50 24° ESE 04:37:47 10° NE visible
